Location: Oshawa
(43.9000°N, 78.8670°W)
Time: 12:07:19
(UTC-05:00)

Cosmos 1408 Rocket - Visible Passes

Search period start: 17 January 2017 00:00
Search period end: 27 January 2017 00:00
Orbit: 601 x 631 km, 82.6° (Epoch: 17 January)

Date Brightness Start Highest point End Pass type
(mag) Time Alt. Az. Time Alt. Az. Time Alt. Az.
17 Jan 6.3 18:55:05 10° WSW 18:58:14 19° WNW 19:01:22 10° NNW visible
18 Jan 3.6 17:32:12 10° S 17:36:38 78° E 17:41:05 10° N visible
18 Jan 6.7 19:13:53 10° W 19:15:02 11° WNW 19:16:10 10° NW visible
19 Jan 4.3 17:48:46 10° SSW 17:53:08 57° W 17:57:31 10° N visible
20 Jan 5.4 18:05:45 10° SW 18:09:44 32° WNW 18:13:44 10° N visible
21 Jan 6.3 18:23:15 10° WSW 18:26:25 19° WNW 18:29:37 10° NNW visible
22 Jan 6.7 18:41:56 10° W 18:43:13 11° WNW 18:44:32 10° NW visible
25 Jan 6.2 17:51:25 10° WSW 17:54:38 19° WNW 17:57:51 10° NNW visible
26 Jan 6.6 18:10:00 10° W 18:11:25 11° WNW 18:12:51 10° NW visible
